TimeEST,TemperatureF,Dew PointF,Humidity,Sea Level PressureIn,VisibilityMPH,Wind Direction,Wind SpeedMPH,Gust SpeedMPH,PrecipitationIn,Events,Conditions,WindDirDegrees,DateUTC
12:15 AM,41.0,40.3,97,30.04,10.0,NNE,9.2,16.1,N/A,Rain,Rain,30,2013-12-06 05:15:00
12:35 AM,40.3,39.6,97,30.04,2.0,NNE,8.1,-,N/A,Rain,Light Rain,20,2013-12-06 05:35:00
12:55 AM,39.7,39.2,98,30.09,2.0,NNW,5.8,-,N/A,,Unknown,340,2013-12-06 05:55:00
1:15 AM,39.2,38.7,98,30.07,1.8,NNW,4.6,-,N/A,,Unknown,340,2013-12-06 06:15:00
1:35 AM,38.7,38.3,99,30.08,4.0,North,6.9,-,N/A,,Overcast,10,2013-12-06 06:35:00
1:55 AM,38.3,37.8,98,30.06,10.0,NNE,5.8,-,N/A,,Overcast,20,2013-12-06 06:55:00
2:15 AM,37.9,37.4,98,30.06,10.0,NNE,6.9,-,N/A,,Overcast,30,2013-12-06 07:15:00
2:35 AM,37.8,37.4,99,30.08,7.0,NNW,6.9,-,N/A,,Overcast,340,2013-12-06 07:35:00
2:55 AM,37.6,37.0,98,30.04,2.5,East,6.9,-,N/A,,Overcast,80,2013-12-06 07:55:00
3:15 AM,37.4,37.0,99,30.08,3.0,North,5.8,-,N/A,,Overcast,360,2013-12-06 08:15:00
3:35 AM,37.4,37.0,99,30.08,5.0,NNE,4.6,-,N/A,,Overcast,20,2013-12-06 08:35:00
3:55 AM,37.4,37.0,99,30.07,4.0,NNE,4.6,-,N/A,,Overcast,30,2013-12-06 08:55:00
4:15 AM,37.4,36.9,98,30.08,5.0,North,4.6,-,N/A,,Overcast,350,2013-12-06 09:15:00
4:35 AM,37.4,36.9,98,30.09,10.0,North,9.2,-,N/A,,Overcast,10,2013-12-06 09:35:00
4:55 AM,36.7,36.3,99,30.10,5.0,North,10.4,-,N/A,,Overcast,10,2013-12-06 09:55:00
5:15 AM,36.5,36.0,98,30.09,10.0,NNE,4.6,-,N/A,,Overcast,30,2013-12-06 10:15:00
5:35 AM,36.5,36.1,99,30.09,7.0,NNE,9.2,-,N/A,,Overcast,20,2013-12-06 10:35:00
5:55 AM,36.3,35.8,98,30.08,1.8,NNE,6.9,-,N/A,,Overcast,20,2013-12-06 10:55:00
6:15 AM,36.1,35.8,99,30.09,4.0,North,4.6,-,N/A,,Overcast,10,2013-12-06 11:15:00
6:35 AM,36.0,35.8,99,30.10,2.5,NNE,4.6,-,N/A,,Overcast,30,2013-12-06 11:35:00
6:55 AM,36.0,35.8,99,30.11,5.0,NNE,4.6,-,N/A,,Overcast,20,2013-12-06 11:55:00
7:15 AM,36.0,35.8,99,30.11,3.0,Calm,Calm,-,N/A,,Overcast,0,2013-12-06 12:15:00
7:35 AM,36.1,36.0,99,30.10,7.0,NNE,3.5,-,N/A,,Overcast,20,2013-12-06 12:35:00
7:55 AM,36.5,36.1,99,30.12,10.0,Calm,Calm,-,N/A,,Overcast,0,2013-12-06 12:55:00
8:15 AM,36.5,36.1,99,30.10,10.0,ENE,4.6,-,N/A,,Overcast,60,2013-12-06 13:15:00
8:35 AM,36.5,36.1,99,30.10,10.0,NE,3.5,-,N/A,,Overcast,50,2013-12-06 13:35:00
8:55 AM,36.7,36.5,99,30.09,10.0,NE,3.5,-,N/A,,Overcast,50,2013-12-06 13:55:00
9:15 AM,36.9,36.5,99,30.10,10.0,North,4.6,-,N/A,,Overcast,10,2013-12-06 14:15:00
9:35 AM,36.9,36.5,99,30.10,10.0,North,6.9,-,N/A,,Overcast,10,2013-12-06 14:35:00
9:55 AM,36.9,36.5,99,30.11,4.0,NE,4.6,-,N/A,,Overcast,40,2013-12-06 14:55:00
10:15 AM,36.7,36.5,99,30.08,4.0,NNE,4.6,-,N/A,,Overcast,30,2013-12-06 15:15:00
10:35 AM,37.2,36.7,98,30.12,3.0,Calm,Calm,-,N/A,,Overcast,0,2013-12-06 15:35:00
10:55 AM,37.4,36.9,98,30.10,10.0,North,5.8,-,N/A,,Overcast,10,2013-12-06 15:55:00
11:15 AM,36.7,36.1,98,30.11,2.5,North,5.8,-,N/A,,Overcast,350,2013-12-06 16:15:00
11:35 AM,36.0,35.6,99,30.11,2.0,North,5.8,-,N/A,,Overcast,10,2013-12-06 16:35:00
11:55 AM,35.8,35.6,99,30.06,3.0,NNE,9.2,-,N/A,,Overcast,30,2013-12-06 16:55:00
12:15 PM,35.8,35.2,98,30.07,3.0,NNE,8.1,-,N/A,,Overcast,30,2013-12-06 17:15:00
12:35 PM,36.0,35.6,99,30.07,1.5,North,3.5,-,N/A,,Overcast,10,2013-12-06 17:35:00
12:55 PM,36.0,35.6,99,30.05,4.0,NNE,6.9,-,N/A,,Overcast,20,2013-12-06 17:55:00
1:15 PM,35.6,35.1,98,30.08,1.5,North,5.8,-,N/A,,Overcast,360,2013-12-06 18:15:00
1:35 PM,35.8,35.6,99,30.06,1.8,NNE,3.5,-,N/A,,Overcast,20,2013-12-06 18:35:00
1:55 PM,36.0,35.6,99,30.03,3.0,NE,8.1,-,N/A,,Overcast,40,2013-12-06 18:55:00
2:15 PM,35.8,35.6,99,30.04,1.5,North,5.8,-,N/A,,Overcast,10,2013-12-06 19:15:00
2:35 PM,35.8,35.4,99,30.06,1.5,North,6.9,-,N/A,,Overcast,10,2013-12-06 19:35:00
2:55 PM,35.2,34.9,99,30.07,2.0,North,5.8,-,N/A,Snow,Light Snow,350,2013-12-06 19:55:00
3:15 PM,34.7,34.3,99,30.04,1.8,NNE,8.1,-,N/A,,Overcast,30,2013-12-06 20:15:00
3:35 PM,34.7,34.2,98,30.05,1.2,North,5.8,-,N/A,Snow,Light Snow,10,2013-12-06 20:35:00
3:55 PM,34.7,34.2,98,30.06,1.0,North,6.9,-,N/A,Snow,Light Snow,360,2013-12-06 20:55:00
4:15 PM,34.7,34.2,98,30.09,3.0,North,4.6,-,N/A,,Overcast,360,2013-12-06 21:15:00
4:35 PM,34.7,34.0,97,30.12,4.0,NNW,5.8,-,N/A,,Overcast,330,2013-12-06 21:35:00
4:55 PM,34.5,34.0,98,30.10,3.0,North,6.9,-,N/A,,Overcast,10,2013-12-06 21:55:00
5:15 PM,34.5,34.0,98,30.13,3.0,North,4.6,-,N/A,,Overcast,350,2013-12-06 22:15:00
5:35 PM,34.5,34.0,98,30.16,5.0,NNW,5.8,-,N/A,,Overcast,340,2013-12-06 22:35:00
5:55 PM,34.7,34.0,97,30.11,2.5,NE,10.4,-,N/A,,Overcast,40,2013-12-06 22:55:00
6:35 PM,34.5,34.2,99,30.18,5.0,WNW,3.5,-,N/A,,Overcast,290,2013-12-06 23:35:00
6:55 PM,34.3,33.8,98,30.16,3.0,North,4.6,-,N/A,,Overcast,10,2013-12-06 23:55:00
7:10 PM,34.3,34.0,99,30.17,4.0,North,4.6,-,N/A,,Overcast,360,2013-12-07 00:10:00
7:30 PM,33.8,33.6,99,30.17,5.0,NNE,5.8,-,N/A,,Overcast,20,2013-12-07 00:30:00
9:20 PM,33.4,32.9,98,30.22,10.0,North,5.8,-,N/A,,Overcast,360,2013-12-07 02:20:00
9:35 PM,33.3,32.9,99,30.19,10.0,NNE,9.2,-,N/A,,Overcast,30,2013-12-07 02:35:00
9:55 PM,33.1,32.7,99,30.19,10.0,NNE,3.5,-,N/A,,Overcast,30,2013-12-07 02:55:00
10:10 PM,32.9,32.5,99,30.20,10.0,North,6.9,-,N/A,,Overcast,360,2013-12-07 03:10:00
10:35 PM,32.9,32.4,98,30.22,10.0,NNE,5.8,-,N/A,,Overcast,20,2013-12-07 03:35:00
10:55 PM,33.1,32.5,98,30.25,10.0,NNW,3.5,-,N/A,,Overcast,340,2013-12-07 03:55:00
11:15 PM,32.9,32.4,98,30.24,10.0,North,5.8,-,N/A,,Overcast,360,2013-12-07 04:15:00
11:35 PM,32.5,32.2,99,30.25,7.0,North,8.1,-,N/A,,Overcast,10,2013-12-07 04:35:00
11:55 PM,32.5,32.2,99,30.27,4.0,North,6.9,-,N/A,,Overcast,10,2013-12-07 04:55:00